Regional Weather Roundup
Issued by NWS

Home | Current Version | Previous Version | Graphics & Text | Print | Product List | Glossary On
Versions: 1 2 3 4 5 6 7 8 9 10 11 12 13 14 15 16 17 18 19 20 21 22 23 24 25 26 27 28 29 30 31 32 33 34 35 36 37 38 39 40 41 42 43 44 45 46 47 48 49 50
971
ASUS43 KBIS 290410
RWRND

NORTH DAKOTA REGIONAL WEATHER ROUNDUP
NATIONAL WEATHER SERVICE BISMARCK ND
1100 PM CDT SAT MAY 28 2016

NOTE: "FAIR" INDICATES FEW OR NO CLOUDS BELOW 12,000 FEET WITH NO
SIGNIFICANT WEATHER AND/OR OBSTRUCTIONS TO VISIBILITY.


NDZ001>003-009>011-017-290500-
NORTHWEST NORTH DAKOTA

CITY           SKY/WX    TMP DP  RH WIND       PRES   REMARKS
WILLISTON      CLEAR     50  48  93 CALM      29.95R
MINOT          CLOUDY    62  55  77 N5        29.93R
MINOT AFB      CLOUDY    59  55  88 NW12      29.93R HAZE
$$

NDZ018>021-031>035-040>046-290500-
SOUTHWEST NORTH DAKOTA

CITY           SKY/WX    TMP DP  RH WIND       PRES   REMARKS
BISMARCK       CLEAR     57  56  96 W5        29.94R
DICKINSON      CLEAR     49  47  93 W3        29.97R FOG
GARRISON         N/A     55  54  96 NW7       29.94R
HETTINGER ARPT CLEAR     49  47  93 NW5       30.00R
$$

NDZ004>008-012>016-024-026-027-054-290500-
NORTHEAST NORTH DAKOTA

CITY           SKY/WX    TMP DP  RH WIND       PRES   REMARKS
GRAND FORKS    LGT RAIN  61  59  93 NW5       29.87R
GRND FRKS AFB  LGT RAIN  61  61 100 N5        29.88R
DEVILS LAKE    CLOUDY    59  57  93 N6        29.91S
$$

NDZ022-023-025-028>030-036>039-047>053-290500-
SOUTHEAST NORTH DAKOTA

CITY           SKY/WX    TMP DP  RH WIND       PRES   REMARKS
FARGO          LGT RAIN  62  59  90 NW8       29.86R
JAMESTOWN      CLOUDY    61  56  83 NE7       29.88R
$$





USA.gov is the U.S. government's official web portal to all federal, state and local government web resources and services.